Location: Kitchener
(43.4500°N, 80.5000°W)
Time: 17:47:13
(UTC-05:00)

N. Korean satellite - Visible Passes

Search period start: 15 February 2019 00:00
Search period end: 25 February 2019 00:00
Orbit: 457 x 510 km, 97.2° (Epoch: 14 February)

Date Brightness Start Highest point End Pass type
(mag) Time Alt. Az. Time Alt. Az. Time Alt. Az.
15 Feb 7.3 06:24:22 10° NNE 06:27:49 54° E 06:31:12 10° S visible
15 Feb 9.7 18:34:54 10° SSW 18:37:48 22° W 18:40:42 10° NW visible
16 Feb 9.0 06:00:01 10° NE 06:02:59 26° E 06:05:55 10° SSE visible
17 Feb 10.1 05:36:22 10° ENE 05:38:05 13° E 05:39:46 10° ESE visible
18 Feb 6.4 06:43:33 10° N 06:47:02 80° WNW 06:50:27 10° SSW visible
18 Feb 10.3 18:55:26 10° WSW 18:57:10 13° W 18:58:55 10° WNW visible
19 Feb 7.7 06:18:55 10° NNE 06:22:16 45° E 06:25:35 10° S visible
19 Feb 9.4 18:29:12 10° SSW 18:32:16 24° W 18:35:19 10° NW visible
20 Feb 9.3 05:54:39 10° NE 05:57:25 22° E 06:00:09 10° SSE visible
21 Feb 10.2 05:31:25 10° ENE 05:32:29 11° E 05:33:32 10° ESE visible
22 Feb 6.5 06:38:00 10° NNE 06:41:28 87° ESE 06:44:53 10° SSW visible
22 Feb 10.1 18:49:30 10° SW 18:51:36 15° W 18:53:41 10° WNW visible
23 Feb 8.1 06:13:25 10° NNE 06:16:41 38° E 06:19:54 10° SSE visible
24 Feb 9.6 05:49:16 10° NE 05:51:48 19° E 05:54:19 10° SE visible
